STARLINK-32609, 61929

Orbit data source: Space-Track

STARLINK-32609, 61929 is a payload satellite owned by SpaceX/Seattle (US) in LEO that was launched on Mon, 11 Nov 2024 UTC via an FALCON 9 launch vehicle from the Air Force Eastern Test Range (AFETR). Payloads include a variety of satellites, spacecraft, and rockets equipped with specific instruments for various scientific and technological missions. These include communications satellites like Starlink; space stations such as the ISS; scientific satellites like the Hubble; Earth observation satellites from companies like Planet Labs, Umbra, and HawkEye 360; GPS; miniature CubeSats for education and research; and military/defense satellites.

Loading next visibility...
STARLINK-32609 details
Identifier
61929, 2024-207T
Orbit
LEO
Last TLE update8 hours ago
Origin
Flag of USSpaceX/Seattle (US)
ManufacturerSpaceX/Seattle
MissionOperational spacecraft
Bus & MotorSTARLINK V2M, Unknown motor
Mass730 kg wet, ~700 kg dry
Launch date (UTC)
2024-11-11 (1 week ago)
Launch vehicle
FALCON 9
Launch site
Air Force Eastern Test Range (AFETR)
Object type
Payload
Rocket body
Debris
Shape & HBRUnknown
Radar Cross SectionRCS unknown

Expand to show TLE details & history

TLE from 8 hours ago
0 STARLINK-32609
1 61929U 24207T   24325.91668981 -.00798594  19905-3 -24151-2 0  9992
2 61929  43.0019  94.4420 0001858 290.5219 245.8629 15.91182130  2491
Epoch: 2024-11-20T22:00Z
Definitive object data (Epoch: 2024-11-20T22:00:01.999Z)
Latitude2.43339°
Longitude-118.56925°
Altitude298.967 km
Speed7.73 km/s
True Right ascension18h 07m 22s
True Declination2° 25' 04"
Sunlit
Object was in daylight at TLE epoch
Visualization TLE readout
Latitude17.18461°
Longitude81.10423°
Altitude299.718 km
Speed7.731 km/s
Apparent Right ascension10h 35m 01s
Apparent Declination-20° 06' 27"
Sunlit
Object is in full shadow
Visualization observer readout
Local Sidereal Time03:27:06
Azimuth95.578° ESE
Elevation-25.526°
Doppler factor1
Orbital elements
Apogee altitude302.213 km
Perigee altitude299.731 km
Semi-major axis6,679.109 km
Eccentricity0.0001858
Inclination43.0019°
RAAN94.442°
Arg. of periapsis290.5219°
True anomaly245.84347°
Mean anomaly245.8629°
Eccentric anomaly245.85319°
Mean motion3.97617 °/min
BSTAR-0.0024151
Orbital period90.54 mins
Loading maneuver chart data...
Loading historical data...
Loading historical data...
Loading historical data...
Loading historical data...
Loading historical data...
Loading historical data...
Loading historical data...

STARLINK-32609 Visibility forecast

Observer location: undefined°, undefined

Span
Click to sort rows by Start time (UTC) header in descending order
Start Az.
Max El. time (UTC)
Max El. Az.
Max El.
End time (UTC)
End Az.
4 mins2024-11-21 12:33:34.567Z228.26° WSW2024-11-21 12:35:34.567Z171.955° S34.633°2024-11-21 12:37:34.567Z85.7° E
|